• In Hungary
  • List of Countries
  • For 7 days
  • Water Temperature
  • Satellite Maps
  • Weather Map
  • News
  • Weather Widgets
  • user-avatar
    Login

    Hourly Weather Denia

    Today, 20 September, Thursday

    Time Temperature Precipitation Wind Pressure Humidity
    00:00 +26°C° 0 mm 3 mps 760 mmHg 75%
    01:00 +25°C° 0 mm 3 mps 760 mmHg 75%
    02:00 +25°C° 0 mm 3 mps 760 mmHg 74%
    03:00 +25°C° 0 mm 3 mps 760 mmHg 73%
    04:00 +24°C° 0 mm 3 mps 760 mmHg 73%
    05:00 +24°C° 0 mm 3 mps 760 mmHg 73%
    06:00 +24°C° 0 mm 3 mps 760 mmHg 72%
    07:00 +26°C° 0 mm 3 mps 760 mmHg 63%
    08:00 +28°C° 0 mm 2 mps 760 mmHg 54%
    09:00 +29°C° 0 mm 2 mps 760 mmHg 46%
    10:00 +31°C° 0 mm 2 mps 760 mmHg 41%
    11:00 +32°C° 0 mm 2 mps 760 mmHg 36%
    12:00 +34°C° 0 mm 2 mps 760 mmHg 31%
    13:00 +35°C° 0 mm 2 mps 759 mmHg 30%
    14:00 +35°C° 0 mm 2 mps 759 mmHg 30%
    15:00 +35°C° 0 mm 2 mps 759 mmHg 29%
    16:00 +34°C° 0 mm 2 mps 758 mmHg 33%
    17:00 +32°C° 0 mm 2 mps 758 mmHg 38%
    18:00 +31°C° 0 mm 2 mps 758 mmHg 43%
    19:00 +30°C° 0 mm 2 mps 758 mmHg 49%
    20:00 +29°C° 0 mm 2 mps 759 mmHg 56%
    21:00 +28°C° 0 mm 2 mps 759 mmHg 63%
    22:00 +27°C° 0 mm 2 mps 759 mmHg 66%
    23:00 +27°C° 0 mm 2 mps 759 mmHg 70%

    Tomorrow, 21 September, Friday

    Time Temperature Precipitation Wind Pressure Humidity
    00:00 +26°C° 0 mm 2 mps 759 mmHg 73%
    01:00 +26°C° 0 mm 2 mps 758 mmHg 74%
    02:00 +26°C° 0 mm 2 mps 758 mmHg 75%
    03:00 +26°C° 0 mm 2 mps 758 mmHg 76%
    04:00 +26°C° 0 mm 2 mps 758 mmHg 75%
    05:00 +26°C° 0 mm 3 mps 758 mmHg 74%
    06:00 +25°C° 0 mm 3 mps 758 mmHg 73%
    07:00 +28°C° 0 mm 3 mps 758 mmHg 63%
    08:00 +30°C° 0 mm 3 mps 759 mmHg 53%
    09:00 +33°C° 0 mm 3 mps 759 mmHg 42%
    10:00 +34°C° 0 mm 4 mps 759 mmHg 38%
    11:00 +35°C° 0 mm 4 mps 759 mmHg 33%
    12:00 +37°C° 0 mm 4 mps 759 mmHg 29%
    13:00 +37°C° 0 mm 5 mps 759 mmHg 28%
    14:00 +37°C° 0 mm 5 mps 758 mmHg 27%
    15:00 +37°C° 0 mm 5 mps 758 mmHg 26%
    16:00 +36°C° 0 mm 5 mps 758 mmHg 31%
    17:00 +35°C° 0 mm 5 mps 758 mmHg 36%
    18:00 +33°C° 0 mm 5 mps 758 mmHg 41%
    19:00 +32°C° 0 mm 4 mps 759 mmHg 47%
    20:00 +30°C° 0 mm 4 mps 760 mmHg 53%
    21:00 +29°C° 0 mm 4 mps 760 mmHg 60%
    22:00 +28°C° 0 mm 3 mps 760 mmHg 62%
    23:00 +28°C° 0 mm 3 mps 760 mmHg 65%

    Day after tomorrow, 22 September, Saturday

    Time Temperature Precipitation Wind Pressure Humidity
    00:00 +27°C° 0 mm 3 mps 760 mmHg 68%
    01:00 +27°C° 0 mm 3 mps 760 mmHg 68%
    02:00 +26°C° 0 mm 3 mps 760 mmHg 69%
    03:00 +26°C° 0 mm 2 mps 760 mmHg 69%
    04:00 +26°C° 0 mm 2 mps 761 mmHg 69%
    05:00 +25°C° 0 mm 2 mps 761 mmHg 68%
    06:00 +25°C° 0 mm 1 mps 761 mmHg 68%
    07:00 +27°C° 0 mm 1 mps 761 mmHg 58%
    08:00 +29°C° 0 mm 2 mps 762 mmHg 48%
    09:00 +31°C° 0 mm 2 mps 762 mmHg 38%
    10:00 +34°C° 0 mm 2 mps 762 mmHg 35%
    11:00 +35°C° 0 mm 3 mps 762 mmHg 33%
    12:00 +36°C° 0 mm 4 mps 762 mmHg 30%
    13:00 +36°C° 0 mm 4 mps 762 mmHg 29%
    14:00 +37°C° 0 mm 4 mps 761 mmHg 29%
    15:00 +37°C° 0 mm 4 mps 761 mmHg 29%
    16:00 +36°C° 0 mm 4 mps 761 mmHg 32%
    17:00 +35°C° 0 mm 5 mps 761 mmHg 36%
    18:00 +34°C° 0 mm 5 mps 761 mmHg 39%
    19:00 +33°C° 0 mm 5 mps 762 mmHg 42%
    20:00 +32°C° 0 mm 5 mps 762 mmHg 44%
    21:00 +30°C° 0 mm 5 mps 762 mmHg 47%
    22:00 +29°C° 0 mm 4 mps 762 mmHg 49%
    23:00 +29°C° 0 mm 4 mps 762 mmHg 50%

    23 September, Sunday

    Time Temperature Precipitation Wind Pressure Humidity
    00:00 +28°C° 0 mm 4 mps 762 mmHg 52%
    01:00 +28°C° 0 mm 4 mps 761 mmHg 53%
    02:00 +27°C° 0 mm 3 mps 761 mmHg 53%
    03:00 +27°C° 0 mm 3 mps 761 mmHg 54%
    04:00 +27°C° 0 mm 3 mps 761 mmHg 54%
    05:00 +26°C° 0 mm 3 mps 761 mmHg 54%
    06:00 +26°C° 0 mm 3 mps 761 mmHg 54%
    07:00 +28°C° 0 mm 3 mps 761 mmHg 46%
    08:00 +30°C° 0 mm 3 mps 761 mmHg 38%
    09:00 +34°C° 0 mm 3 mps 761 mmHg 31%
    10:00 +35°C° 0 mm 3 mps 761 mmHg 27%
    11:00 +36°C° 0 mm 4 mps 761 mmHg 23%
    12:00 +37°C° 0 mm 4 mps 761 mmHg 19%
    13:00 +39°C° 0 mm 5 mps 761 mmHg 18%
    14:00 +39°C° 0 mm 5 mps 760 mmHg 17%
    15:00 +39°C° 0 mm 5 mps 760 mmHg 16%
    16:00 +37°C° 0 mm 5 mps 760 mmHg 18%
    17:00 +36°C° 0 mm 5 mps 759 mmHg 19%
    18:00 +35°C° 0 mm 5 mps 759 mmHg 21%
    19:00 +33°C° 0 mm 5 mps 760 mmHg 24%
    20:00 +32°C° 0 mm 5 mps 760 mmHg 27%
    21:00 +30°C° 0 mm 5 mps 760 mmHg 30%
    22:00 +30°C° 0 mm 5 mps 760 mmHg 32%
    23:00 +29°C° 0 mm 5 mps 760 mmHg 34%

    24 September, Monday

    Time Temperature Precipitation Wind Pressure Humidity
    00:00 +29°C° 0 mm 4 mps 760 mmHg 37%
    01:00 +28°C° 0 mm 3 mps 760 mmHg 37%
    02:00 +28°C° 0 mm 3 mps 760 mmHg 37%
    03:00 +28°C° 0 mm 2 mps 760 mmHg 37%
    04:00 +27°C° 0 mm 2 mps 760 mmHg 39%
    05:00 +27°C° 0 mm 2 mps 760 mmHg 41%
    06:00 +26°C° 0 mm 3 mps 760 mmHg 43%
    07:00 +28°C° 0 mm 3 mps 760 mmHg 43%
    08:00 +29°C° 0 mm 4 mps 761 mmHg 43%
    09:00 +32°C° 0 mm 4 mps 761 mmHg 43%
    10:00 +32°C° 0 mm 5 mps 761 mmHg 42%
    11:00 +33°C° 0 mm 5 mps 761 mmHg 41%
    12:00 +34°C° 0 mm 6 mps 761 mmHg 39%
    13:00 +34°C° 0 mm 6 mps 761 mmHg 41%
    14:00 +35°C° 0 mm 6 mps 761 mmHg 42%
    15:00 +35°C° 0 mm 6 mps 760 mmHg 44%
    16:00 +33°C° 0 mm 6 mps 760 mmHg 53%
    17:00 +30°C° 0 mm 6 mps 761 mmHg 63%
    18:00 +29°C° 0 mm 5 mps 761 mmHg 73%
    19:00 +28°C° 0 mm 5 mps 761 mmHg 77%
    20:00 +28°C° 0 mm 5 mps 762 mmHg 82%
    21:00 +27°C° 0 mm 5 mps 762 mmHg 86%
    22:00 +27°C° 0 mm 5 mps 762 mmHg 87%
    23:00 +27°C° 0 mm 5 mps 762 mmHg 88%

    25 September, Tuesday

    Time Temperature Precipitation Wind Pressure Humidity
    00:00 +27°C° 0 mm 5 mps 762 mmHg 89%
    01:00 +26°C° 0 mm 5 mps 762 mmHg 90%
    02:00 +26°C° 0 mm 6 mps 762 mmHg 92%
    03:00 +26°C° 0 mm 6 mps 762 mmHg 94%
    04:00 +24°C° 0 mm 6 mps 762 mmHg 93%
    05:00 +24°C° 0 mm 6 mps 762 mmHg 93%
    06:00 +24°C° 0 mm 6 mps 762 mmHg 92%
    07:00 +26°C° 0 mm 6 mps 762 mmHg 87%
    08:00 +27°C° 0 mm 6 mps 763 mmHg 83%
    09:00 +27°C° 0 mm 6 mps 763 mmHg 78%
    10:00 +28°C° 0 mm 5 mps 763 mmHg 74%
    11:00 +28°C° 0 mm 5 mps 763 mmHg 70%
    12:00 +29°C° 0 mm 5 mps 763 mmHg 66%
    13:00 +29°C° 0 mm 5 mps 763 mmHg 65%
    14:00 +29°C° 0 mm 5 mps 763 mmHg 65%
    15:00 +28°C° 0 mm 5 mps 762 mmHg 65%
    16:00 +28°C° 0 mm 5 mps 763 mmHg 68%
    17:00 +27°C° 0 mm 5 mps 763 mmHg 71%
    18:00 +26°C° 0 mm 5 mps 763 mmHg 75%
    19:00 +25°C° 0 mm 5 mps 763 mmHg 79%
    20:00 +23°C° 0 mm 5 mps 763 mmHg 84%
    21:00 +23°C° 0 mm 5 mps 764 mmHg 88%
    22:00 +23°C° 0 mm 5 mps 764 mmHg 88%
    23:00 +22°C° 0 mm 6 mps 764 mmHg 88%
    Show more